Weather History for KONL - September, 2011

Change the Weather History Date:

Wednesday, September 21, 2011

  Actual Average Record
Temperature  
Mean Temperature 52 °F -  
Max Temperature 62 °F 73 °F 96 °F (2005)
Min Temperature 42 °F 45 °F 28 °F (1983)
Degree Days  
Heating Degree Days 13    
Growing Degree Days 2 (Base 50)    
Moisture  
Dew Point 40 °F    
Average Humidity 66    
Maximum Humidity 87    
Minimum Humidity 42    
Precipitation  
Precipitation 0.00 in - - ()
Sea Level Pressure  
Sea Level Pressure 30.14 in    
Wind  
Wind Speed 12 mph (WNW)    
Max Wind Speed 24 mph    
Max Gust Speed 31 mph    
Visibility 10 miles    
Events      
Averages and records for this station are not official NWS values.
T = Trace of Precipitation, MM = Missing Value Source: NWS Daily Summary

Daily Weather History Graph

Daily Weather History Graph

Search for Another Location

Airport or City:

Trip Planner

Search our weather history database for the weather conditions in past years. The results will help you decide how hot, cold, wet, or windy it might be!

Date:

Astronomy

Sep. 21, 2011 Rise Set
Actual Time 7:20 AM CDT 7:34 PM CDT
Civil Twilight 6:52 AM CDT 8:02 PM CDT
Nautical Twilight 6:19 AM CDT 8:35 PM CDT
Astronomical Twilight 5:45 AM CDT 9:08 PM CDT
Moon 12:34 AM CDT (9/21) 3:52 PM CDT (9/21)
Length of Visible Light 13h 09m
Length of Day
12h 13m
Last Quarter, 38% of the Moon is Illuminated
Sep 21
Last Quarter
Sep 27
New
Oct 3
First Quarter
Oct 11
Full
Oct 19
Last Quarter

Hourly Weather History & Observations

Time (CDT) Temp. Windchill Dew Point Humidity Pressure Visibility Wind Dir Wind Speed Gust Speed Precip Events Conditions
12:15 AM 46.4 °F 41.9 °F 39.2 °F 76% 30.09 in 10.0 mi West 9.2 mph - N/A   Clear
12:35 AM 44.6 °F 41.4 °F 39.2 °F 81% 30.09 in 10.0 mi West 5.8 mph - N/A   Clear
12:55 AM 44.6 °F 40.2 °F 39.2 °F 81% 30.09 in 10.0 mi West 8.1 mph - N/A   Clear
1:15 AM 44.6 °F 39.7 °F 39.2 °F 81% 30.10 in 10.0 mi West 9.2 mph - N/A   Clear
1:35 AM 44.6 °F 40.2 °F 39.2 °F 81% 30.10 in 10.0 mi West 8.1 mph - N/A   Clear
1:55 AM 44.6 °F 40.2 °F 39.2 °F 81% 30.09 in 10.0 mi West 8.1 mph - N/A   Clear
2:15 AM 44.6 °F 39.2 °F 39.2 °F 81% 30.09 in 10.0 mi West 10.4 mph - N/A   Clear
2:35 AM 46.4 °F 40.7 °F 39.2 °F 76% 30.09 in 10.0 mi WNW 12.7 mph 18.4 mph N/A   Clear
2:55 AM 46.4 °F 41.1 °F 39.2 °F 76% 30.09 in 10.0 mi West 11.5 mph - N/A   Clear
3:15 AM 46.4 °F 42.9 °F 37.4 °F 71% 30.08 in 10.0 mi West 6.9 mph - N/A   Clear
3:35 AM 44.6 °F 39.7 °F 37.4 °F 76% 30.08 in 10.0 mi West 9.2 mph - N/A   Clear
3:55 AM 44.6 °F 39.2 °F 37.4 °F 76% 30.08 in 10.0 mi West 10.4 mph - N/A   Clear
4:15 AM 44.6 °F 39.7 °F 37.4 °F 76% 30.08 in 10.0 mi West 9.2 mph - N/A   Clear
4:35 AM 44.6 °F 40.2 °F 37.4 °F 76% 30.08 in 10.0 mi West 8.1 mph - N/A   Clear
4:55 AM 42.8 °F 37.0 °F 39.2 °F 87% 30.08 in 10.0 mi West 10.4 mph - N/A   Clear
5:15 AM 42.8 °F 37.0 °F 37.4 °F 81% 30.08 in 10.0 mi West 10.4 mph - N/A   Clear
5:35 AM 42.8 °F 37.0 °F 39.2 °F 87% 30.09 in 10.0 mi West 10.4 mph - N/A   Clear
5:55 AM 42.8 °F 37.5 °F 39.2 °F 87% 30.09 in 10.0 mi West 9.2 mph - N/A   Clear
6:15 AM 42.8 °F 37.0 °F 37.4 °F 81% 30.10 in 10.0 mi West 10.4 mph - N/A   Clear
6:35 AM 42.8 °F 36.6 °F 37.4 °F 81% 30.11 in 10.0 mi West 11.5 mph - N/A   Clear
6:55 AM 44.6 °F 38.4 °F 37.4 °F 76% 30.11 in 10.0 mi West 12.7 mph - N/A   Clear
7:15 AM 44.6 °F 38.1 °F 37.4 °F 76% 30.12 in 10.0 mi WNW 13.8 mph 18.4 mph N/A   Clear
7:35 AM 44.6 °F 37.8 °F 37.4 °F 76% 30.13 in 10.0 mi West 15.0 mph 19.6 mph N/A   Clear
7:55 AM 44.6 °F 37.4 °F 37.4 °F 76% 30.13 in 10.0 mi West 16.1 mph - N/A   Clear
8:15 AM 46.4 °F 40.7 °F 39.2 °F 76% 30.14 in 10.0 mi West 12.7 mph 17.3 mph N/A   Clear
8:35 AM 46.4 °F 39.5 °F 39.2 °F 76% 30.15 in 10.0 mi WNW 17.3 mph 21.9 mph N/A   Clear
8:55 AM 48.2 °F - 39.2 °F 71% 30.16 in 10.0 mi WNW 15.0 mph 21.9 mph N/A   Clear
9:15 AM 50.0 °F - 41.0 °F 71% 30.16 in 10.0 mi WNW 17.3 mph 21.9 mph N/A   Clear
9:35 AM 51.8 °F - 41.0 °F 67% 30.16 in 10.0 mi WNW 15.0 mph 24.2 mph N/A   Clear
9:55 AM 51.8 °F - 41.0 °F 67% 30.17 in 10.0 mi WNW 18.4 mph 25.3 mph N/A   Clear
10:15 AM 53.6 °F - 42.8 °F 67% 30.17 in 10.0 mi NW 18.4 mph 25.3 mph N/A   Clear
10:35 AM 55.4 °F - 42.8 °F 63% 30.18 in 10.0 mi NW 21.9 mph 26.5 mph N/A   Clear
10:55 AM 55.4 °F - 42.8 °F 63% 30.17 in 10.0 mi NW 17.3 mph 26.5 mph N/A   Clear
11:15 AM 57.2 °F - 42.8 °F 59% 30.17 in 10.0 mi NW 19.6 mph 24.2 mph N/A   Clear
11:35 AM 59.0 °F - 42.8 °F 55% 30.17 in 10.0 mi NW 23.0 mph 27.6 mph N/A   Scattered Clouds
11:55 AM 59.0 °F - 41.0 °F 51% 30.17 in 10.0 mi NNW 19.6 mph 27.6 mph N/A   Scattered Clouds
12:15 PM 59.0 °F - 41.0 °F 51% 30.18 in 10.0 mi NW 24.2 mph 29.9 mph N/A   Scattered Clouds
12:35 PM 59.0 °F - 41.0 °F 51% 30.17 in 10.0 mi NW 18.4 mph 28.8 mph N/A   Mostly Cloudy
12:55 PM 59.0 °F - 41.0 °F 51% 30.18 in 10.0 mi NW 19.6 mph 25.3 mph N/A   Mostly Cloudy
1:15 PM 59.0 °F - 42.8 °F 55% 30.17 in 10.0 mi NW 17.3 mph 23.0 mph N/A   Overcast
1:35 PM 60.8 °F - 41.0 °F 48% 30.17 in 10.0 mi NW 20.7 mph 27.6 mph N/A   Mostly Cloudy
1:55 PM 60.8 °F - 41.0 °F 48% 30.17 in 10.0 mi NW 21.9 mph 28.8 mph N/A   Scattered Clouds
2:15 PM 59.0 °F - 41.0 °F 51% 30.17 in 10.0 mi NW 19.6 mph 26.5 mph N/A   Scattered Clouds
2:35 PM 60.8 °F - 41.0 °F 48% 30.17 in 10.0 mi WNW 19.6 mph 28.8 mph N/A   Scattered Clouds
2:55 PM 62.6 °F - 39.2 °F 42% 30.16 in 10.0 mi WNW 23.0 mph 29.9 mph N/A   Scattered Clouds
3:15 PM 62.6 °F - 41.0 °F 45% 30.16 in 10.0 mi NW 19.6 mph 24.2 mph N/A   Mostly Cloudy
3:35 PM 60.8 °F - 41.0 °F 48% 30.16 in 10.0 mi NNW 20.7 mph 25.3 mph N/A   Scattered Clouds
3:55 PM 59.0 °F - 41.0 °F 51% 30.17 in 10.0 mi NNW 23.0 mph 31.1 mph N/A   Clear
4:15 PM 55.4 °F - 41.0 °F 58% 30.17 in 10.0 mi NNW 20.7 mph 27.6 mph N/A   Clear
4:35 PM 55.4 °F - 41.0 °F 58% 30.17 in 10.0 mi NNW 17.3 mph - N/A   Clear
4:55 PM 57.2 °F - 41.0 °F 55% 30.17 in 10.0 mi NNW 12.7 mph - N/A   Clear
5:15 PM 57.2 °F - 41.0 °F 55% 30.17 in 10.0 mi NNW 11.5 mph 20.7 mph N/A   Clear
5:35 PM 59.0 °F - 41.0 °F 51% 30.17 in 10.0 mi NW 15.0 mph 19.6 mph N/A   Scattered Clouds
5:55 PM 59.0 °F - 41.0 °F 51% 30.17 in 10.0 mi NW 17.3 mph - N/A   Scattered Clouds
6:15 PM 59.0 °F - 41.0 °F 51% 30.17 in 10.0 mi NNW 13.8 mph - N/A   Clear
6:35 PM 57.2 °F - 41.0 °F 55% 30.17 in 10.0 mi NW 11.5 mph - N/A   Clear
6:55 PM 55.4 °F - 41.0 °F 58% 30.17 in 10.0 mi NW 9.2 mph - N/A   Clear
7:15 PM 55.4 °F - 41.0 °F 58% 30.17 in 10.0 mi WNW 5.8 mph - N/A   Clear
7:35 PM 51.8 °F - 42.8 °F 71% 30.17 in 10.0 mi West 4.6 mph - N/A   Clear
7:55 PM 51.8 °F - 42.8 °F 71% 30.17 in 10.0 mi West 4.6 mph - N/A   Clear
8:15 PM 50.0 °F - 41.0 °F 71% 30.18 in 10.0 mi West 4.6 mph - N/A   Clear
8:35 PM 50.0 °F - 41.0 °F 71% 30.18 in 10.0 mi WNW 3.5 mph - N/A   Clear
8:55 PM 48.2 °F - 41.0 °F 76% 30.19 in 10.0 mi NW 3.5 mph - N/A   Clear
9:15 PM 48.2 °F - 41.0 °F 76% 30.19 in 10.0 mi Calm Calm - N/A   Clear
9:35 PM 46.4 °F 45.2 °F 41.0 °F 81% 30.19 in 10.0 mi WNW 3.5 mph - N/A   Clear
9:55 PM 44.6 °F 43.1 °F 41.0 °F 87% 30.19 in 10.0 mi West 3.5 mph - N/A   Clear
10:15 PM 44.6 °F 42.2 °F 41.0 °F 87% 30.19 in 10.0 mi NW 4.6 mph - N/A   Clear
10:35 PM 44.6 °F - 39.2 °F 81% 30.19 in 10.0 mi Calm Calm - N/A   Clear
10:55 PM 44.6 °F 43.1 °F 39.2 °F 81% 30.19 in 10.0 mi NW 3.5 mph - N/A   Clear
11:15 PM 42.8 °F - 39.2 °F 87% 30.19 in 10.0 mi Calm Calm - N/A   Clear
11:35 PM 42.8 °F 40.1 °F 37.4 °F 81% 30.19 in 10.0 mi North 4.6 mph - N/A   Clear
11:55 PM 41.0 °F 37.1 °F 37.4 °F 87% 30.19 in 10.0 mi North 5.8 mph - N/A   Clear